Location: Unspecified
(0.0000°N, 0.0000°E)
Time: 02:35:25
(UTC+00:00)

deb NNS O-18 - Pass Details

Date: 04 November 2024
Orbit: 1009 x 1291 km, 89.8° (Epoch: 29 November)

Event Time Altitude Azimuth Distance (km) Brightness Sun altitude
Rises 04:32:25 0° 178° (S) 4,198 ? -17.1°
Reaches altitude 10° 04:35:10 10° 179° (S) 3,199 ? -16.5°
Maximum altitude 04:42:37 82° 265° (W) 1,193 ? -14.7°
Drops below altitude 10° 04:49:33 10° 353° (N) 2,990 ? -13.0°
Sets 04:52:03 0° 354° (N) 3,909 ? -12.4°
